[[{"header":{"parameterUnit":"m.s-1","parameterCategory":1,"la1":30.2991,"la2":30.254,"lo1":-89.0895,"lo2":-89.0444,"dy":0.0017,"dx":0.0017,"nx":28,"ny":28,"refTime":"2025-05-19T09:00:00:Z","depth":0,"parameterNumber":2,"parameterNumberName":"U-component_of_WINDS"},"data":[0,0,0,0,0,0,0,0,0,0,0,0,0,0,0,0,0,0,0,0,0,0,0,0,0,0,0,0,0,0,0,0,0,0,0,0,0,0,0,0,0,0,0,0,0,0,0,0,0,0,0,0,0,0,0,0,0,0,-1.9332,-1.9332,0,-1.9396,-1.9397,-1.9398,-1.9391,-1.939,-1.9389,-1.9388,-1.9459,-1.9462,-1.9465,0,0,0,0,0,0,0,0,0,0,0,0,0,-1.921,-1.9212,-1.9332,-1.9333,-1.9333,-1.9396,-1.9397,-1.9398,-1.9391,-1.939,-1.9389,-1.9387,-1.9459,-1.9462,-1.9465,0,0,0,0,0,0,0,0,0,0,0,0,0,-1.9268,-1.9213,-1.9332,-1.9337,-1.9339,-1.9396,-1.9397,-1.9398,-1.9391,-1.939,-1.9388,-1.9387,-1.9457,-1.9462,-1.9466,-1.9523,0,0,-1.9479,-1.9481,0,0,0,0,0,0,0,0,-1.9264,-1.9272,-1.9336,-1.9337,-1.9339,-1.9384,-1.938,-1.944,-1.9392,-1.9372,-1.9388,-1.9386,-1.9436,-1.9442,-1.9457,-1.9526,-1.9529,-1.9479,-1.9482,-1.9484,-1.9485,0,0,0,0,0,0,0,-1.926,-1.9269,-1.9357,-1.9337,-1.9338,-1.9339,-1.9346,-1.9391,-1.9412,-1.9373,-1.9373,-1.938,-1.9436,-1.9453,-1.9459,-1.953,-1.9479,-1.9483,-1.9486,-1.9487,-1.9651,-1.9653,0,0,0,0,0,0,-1.9254,-1.9266,-1.9355,-1.9359,-1.9297,-1.9343,-1.935,-1.9371,-1.9411,-1.9416,-1.9381,-1.938,-1.9447,-1.9454,-1.9462,-1.9532,-1.9484,-1.9488,-1.949,-1.965,-1.9652,-1.9654,0,0,0,0,0,0,-1.9251,-1.9262,-1.9353,-1.9313,-1.9324,-1.9346,-1.937,-1.9373,-1.939,-1.9417,-1.9422,-1.9395,-1.9446,-1.9456,-1.9508,-1.9534,-1.949,-1.9494,-1.9648,-1.965,-1.9653,-1.9672,0,0,0,0,0,0,-1.9248,-1.9261,-1.9281,-1.9313,-1.9326,-1.9396,-1.9372,-1.9375,-1.9397,-1.9395,-1.9431,-1.9435,-1.9445,-1.9501,-1.9512,-1.9539,-1.9497,-1.9645,-1.9649,-1.9652,-1.9669,-1.9675,-1.968,0,0,0,0,0,-1.9244,-1.9285,-1.9282,-1.9293,-1.9352,-1.9397,-1.9405,-1.9414,-1.9399,-1.942,-1.9438,-1.9434,-1.953,-1.9507,-1.9519,-1.9548,-1.9644,-1.9648,-1.9652,-1.9667,-1.9674,-1.968,0,0,0,0,0,0,-1.9258,-1.9289,-1.9287,-1.9339,-1.9365,-1.9396,-1.9423,-1.9421,-1.9454,-1.9451,-1.9463,-1.9471,-1.9524,-1.9541,-1.9515,-1.9606,-1.9585,-1.9592,-1.9592,-1.9599,-1.9605,-1.9599,-1.95,0,0,0,0,0,-1.9267,-1.9299,-1.9326,-1.937,-1.9383,-1.9401,-1.9421,-1.9426,-1.9454,-1.9466,-1.9488,-1.9517,-1.9554,-1.9578,-1.9613,-1.9672,-1.9681,-1.9698,-1.9704,-1.9708,-1.9714,-1.9747,-1.9756,-1.9667,-1.9667,-1.9667,0,0,-1.9286,-1.9307,-1.9327,-1.9373,-1.9394,-1.9429,-1.941,-1.9448,-1.9475,-1.9472,-1.9522,-1.954,-1.9574,-1.963,-1.9655,-1.9646,-1.974,-1.9713,-1.9717,-1.972,-1.9752,-1.9761,-1.9768,-1.967,-1.9669,-1.9669,0,0,-1.9339,-1.9358,-1.9397,-1.9418,-1.9449,-1.9461,-1.9471,-1.9502,-1.9513,-1.9563,-1.9562,-1.9596,-1.9658,-1.9682,-1.9703,-1.9767,-1.9765,-1.9779,-1.9807,-1.984,-1.9847,-1.9853,-1.9877,-1.9885,-1.9784,-1.9784,-1.9784,0,-1.936,-1.941,-1.9418,-1.9456,-1.9477,-1.9475,-1.9515,-1.9536,-1.9579,-1.9594,-1.9582,-1.9662,-1.9684,-1.9746,-1.9762,-1.9779,-1.9792,-1.9774,-1.9845,-1.9851,-1.9858,-1.988,-1.9889,-1.9786,-1.9786,-1.9786,-1.9785,0,-1.9434,-1.947,-1.9498,-1.9537,-1.9561,-1.9601,-1.9616,-1.9641,-1.9644,-1.9658,-1.971,-1.9738,-1.9779,-1.9794,-1.9798,-1.9858,-1.9851,-1.9842,-1.9821,-1.9867,-1.9889,-1.9897,-1.9788,-1.9787,-1.9787,-1.9787,0,0,-1.9497,-1.9539,-1.955,-1.9568,-1.9603,-1.9631,-1.9672,-1.9711,-1.9732,-1.9762,-1.9797,-1.9851,-1.9843,-1.9867,-1.9874,-1.9903,-1.9953,-1.9891,-1.9892,-1.9902,-2.0021,-2.0027,-2.0037,-1.9952,-1.9954,-1.9955,-2.0018,0,-1.9553,-1.9622,-1.963,-1.9693,-1.9726,-1.9726,-1.9761,-1.9788,-1.9803,-1.9836,-1.9853,-1.9891,-1.9878,-1.9892,-1.9921,-1.9941,-1.9977,-1.9936,-1.9987,-1.9988,-1.9977,-2.0048,-2.0054,-2.0112,-2.0027,-2.0028,-2.0029,0,-1.9628,-1.9658,-1.9722,-1.9754,-1.9768,-1.98,-1.9836,-1.9867,-1.9899,-1.9908,-1.9934,-1.9938,-1.9983,-1.996,-2.0023,-1.9995,-2.0016,-2.003,-2.0032,-2.0037,-2.0011,-2.0054,-2.0131,-2.0139,-2.0042,-2.0041,-2.004,0,-1.9667,-1.9724,-1.977,-1.9786,-1.9823,-1.9845,-1.9863,-1.9892,-1.9915,-1.9949,-1.9964,-2.0003,-2.0024,-2.0055,-2.0071,-2.0053,-2.0132,-2.0111,-2.0142,-2.0142,-2.0158,-2.0157,-2.0239,-2.0173,-2.0173,-2.0172,-2.0172,0,-1.9729,-1.9768,-1.9788,-1.9816,-1.9862,-1.9873,-1.9919,-1.9935,-1.9962,-1.9996,-1.9999,-2.0031,-2.0049,-2.0084,-2.0097,-2.0147,-2.0157,-2.0167,-2.017,-2.0166,-2.0165,-2.018,-2.0177,-2.0175,-2.0174,-2.0174,-2.0173,0,-1.978,-1.9794,-1.9845,-1.9876,-1.9885,-1.9917,-1.9945,-1.9974,-1.9989,-2.0032,-2.0042,-2.0067,-2.0108,-2.0127,-2.0179,-2.0188,-2.0245,-2.0245,-2.0234,-2.0235,-2.0265,-2.0262,-2.036,-2.0373,-2.0298,-2.0299,-2.0299,0,-1.9818,-1.9848,-1.9883,-1.9904,-1.9921,-1.9956,-1.998,-1.9993,-2.0017,-2.0056,-2.0081,-2.0122,-2.0156,-2.0224,-2.0247,-2.0288,-2.0289,-2.032,-2.0295,-2.0291,-2.029,-2.0287,-2.0291,-2.0325,-2.0326,-2.0326,-2.0327,0,-1.9884,-1.989,-1.9922,-1.9957,-1.9985,-2.0014,-2.0042,-2.006,-2.0078,-2.0106,-2.0148,-2.0174,-2.0227,-2.0269,-2.0311,-2.0331,-2.0333,-2.0335,-2.0344,-2.0341,-2.0333,-2.0338,-2.0246,-2.0332,-2.0332,-2.0331,-2.0331,-2.0331,-1.993,-1.9958,-1.9986,-2.0022,-2.0045,-2.0071,-2.01,-2.0118,-2.0153,-2.0195,-2.0202,-2.0247,-2.028,-2.0336,-2.0358,-2.0395,-2.0387,-2.0401,-2.0404,-2.0407,-2.0409,-2.0327,-2.0403,-2.0403,-2.0402,-2.0402,-2.0402,0,-1.9997,-2.0015,-2.0049,-2.0087,-2.0117,-2.0114,-2.0145,-2.0171,-2.0209,-2.0239,-2.0272,-2.0321,-2.0362,-2.0389,-2.0431,-2.0455,-2.0457,-2.0466,-2.0464,-2.0469,-2.0413,-2.0401,-2.0464,-2.0464,-2.0464,-2.0464,-2.0464,-2.0464,-2.0035,-2.0081,-2.0091,-2.0149,-2.0168,-2.021,-2.0229,-2.0254,-2.0277,-2.0331,-2.0364,-2.0381,-2.0411,-2.0455,-2.0493,-2.05,-2.0516,-2.0525,-2.0532,-2.0479,-2.0473,-2.0467,-2.0455,-2.0528,-2.0528,-2.0585,-2.0585,-2.0585]},{"header":{"parameterUnit":"m.s-1","parameterCategory":1,"la1":30.2991,"la2":30.254,"lo1":-89.0895,"lo2":-89.0444,"dy":0.0017,"dx":0.0017,"nx":28,"ny":28,"refTime":"2025-05-19T09:00:00:Z","depth":0,"parameterNumber":3,"parameterNumberName":"V-component_of_WINDS"},"data":[0,0,0,0,0,0,0,0,0,0,0,0,0,0,0,0,0,0,0,0,0,0,0,0,0,0,0,0,0,0,0,0,0,0,0,0,0,0,0,0,0,0,0,0,0,0,0,0,0,0,0,0,0,0,0,0,0,0,4.2403,4.2405,0,4.2598,4.26,4.2602,4.2709,4.2709,4.2709,4.2709,4.2909,4.2914,4.2919,0,0,0,0,0,0,0,0,0,0,0,0,0,4.2123,4.2128,4.2403,4.2405,4.2408,4.2597,4.26,4.2603,4.2709,4.2709,4.2709,4.271,4.2907,4.2913,4.2919,0,0,0,0,0,0,0,0,0,0,0,0,0,4.2274,4.2129,4.2402,4.2483,4.2493,4.2597,4.26,4.2603,4.2709,4.2709,4.2709,4.271,4.2905,4.2913,4.292,4.2959,0,0,4.2943,4.2947,0,0,0,0,0,0,0,0,4.2265,4.2284,4.2469,4.2478,4.2488,4.2629,4.2575,4.2723,4.2708,4.2626,4.2709,4.271,4.2816,4.2831,4.2866,4.2968,4.2977,4.2944,4.2949,4.2952,4.2954,0,0,0,0,0,0,0,4.2255,4.2276,4.248,4.2472,4.2483,4.251,4.2532,4.2603,4.2716,4.2634,4.2642,4.2663,4.2821,4.2859,4.2872,4.298,4.2944,4.2951,4.2955,4.2958,4.3125,4.3125,0,0,0,0,0,0,4.2231,4.2267,4.2474,4.2486,4.2376,4.2515,4.2539,4.2584,4.2716,4.2736,4.2663,4.2668,4.2846,4.2863,4.2879,4.2935,4.2952,4.2959,4.2963,4.3125,4.3125,4.3125,0,0,0,0,0,0,4.2225,4.2249,4.2466,4.2379,4.2408,4.2519,4.2568,4.2587,4.2625,4.2738,4.2759,4.2681,4.2847,4.2868,4.2939,4.2943,4.2962,4.2969,4.3125,4.3125,4.3125,4.3045,0,0,0,0,0,0,4.2216,4.2246,4.2261,4.2378,4.2413,4.2522,4.2568,4.2591,4.2638,4.2646,4.276,4.2779,4.2849,4.2927,4.2946,4.2954,4.2975,4.3125,4.3125,4.3125,4.3048,4.3043,4.3038,0,0,0,0,0,4.2206,4.2231,4.2262,4.2286,4.2435,4.2522,4.2542,4.2621,4.2638,4.2655,4.2728,4.2776,4.2939,4.2933,4.2956,4.2966,4.3126,4.3125,4.3125,4.3051,4.3044,4.3038,0,0,0,0,0,0,4.2112,4.2248,4.2283,4.2347,4.2422,4.254,4.2564,4.2611,4.2683,4.2687,4.2782,4.2807,4.2868,4.2924,4.2915,4.3011,4.3037,4.3042,4.2973,4.2967,4.2962,4.2949,4.2982,0,0,0,0,0,4.2099,4.2158,4.2273,4.2318,4.2354,4.2452,4.2493,4.2547,4.2629,4.2661,4.2739,4.2817,4.2886,4.2929,4.2999,4.3056,4.3083,4.3074,4.3069,4.3064,4.3067,4.3103,4.3101,4.3124,4.3124,4.3124,0,0,4.2072,4.2153,4.2185,4.2301,4.2366,4.2426,4.2478,4.2539,4.2585,4.2671,4.2743,4.2802,4.2895,4.2959,4.2991,4.3007,4.3067,4.3064,4.3059,4.3065,4.3103,4.31,4.3098,4.3124,4.3124,4.3124,0,0,4.2054,4.2121,4.2167,4.223,4.2327,4.2392,4.2403,4.2514,4.2557,4.263,4.2696,4.2751,4.2868,4.2932,4.2979,4.2985,4.3033,4.3005,4.2979,4.3012,4.3011,4.3009,4.3013,4.3013,4.3007,4.3007,4.3007,0,4.2009,4.2102,4.2184,4.2242,4.2292,4.2371,4.2419,4.2477,4.2591,4.2624,4.264,4.2789,4.2857,4.2938,4.2939,4.2974,4.2991,4.2994,4.3004,4.3004,4.3004,4.3009,4.301,4.3003,4.3004,4.3004,4.3005,0,4.2042,4.2105,4.213,4.2239,4.2292,4.2344,4.2434,4.2477,4.2527,4.259,4.2664,4.2748,4.2837,4.2859,4.2908,4.2948,4.2955,4.2986,4.3015,4.2997,4.3003,4.3005,4.2998,4.2999,4.3,4.3001,0,0,4.1973,4.2126,4.2134,4.2185,4.2298,4.2349,4.2404,4.2491,4.2527,4.2602,4.2653,4.2749,4.2779,4.2833,4.2889,4.2918,4.292,4.2947,4.295,4.294,4.2971,4.2948,4.2948,4.2951,4.2952,4.2952,4.2963,0,4.1973,4.2077,4.2152,4.2228,4.2288,4.2364,4.2413,4.2487,4.2547,4.2607,4.2674,4.2742,4.2775,4.2808,4.2841,4.2913,4.2927,4.2913,4.3,4.3002,4.2976,4.2952,4.2928,4.2934,4.2966,4.2967,4.2967,0,4.1988,4.2061,4.2142,4.2249,4.2277,4.232,4.2406,4.2462,4.2548,4.259,4.2649,4.2707,4.277,4.2791,4.2879,4.2867,4.2907,4.2948,4.295,4.2963,4.2985,4.2966,4.2938,4.294,4.2971,4.2971,4.2971,0,4.1931,4.205,4.2115,4.2156,4.2281,4.231,4.2363,4.245,4.2497,4.2572,4.2604,4.2685,4.273,4.2791,4.2869,4.2877,4.295,4.2977,4.2988,4.2986,4.3001,4.3,4.2982,4.3023,4.3023,4.3023,4.3023,0,4.1925,4.1972,4.2091,4.2131,4.2186,4.2272,4.2325,4.2385,4.2461,4.2514,4.2584,4.2633,4.2732,4.2793,4.2854,4.2919,4.2938,4.2974,4.299,4.2969,4.2965,4.2998,4.3001,4.3023,4.3023,4.3023,4.3023,0,4.1873,4.1954,4.203,4.2142,4.2172,4.2207,4.2304,4.2346,4.2409,4.2476,4.2496,4.2596,4.2671,4.2755,4.2857,4.2899,4.296,4.2982,4.2931,4.2941,4.2947,4.2946,4.2952,4.2958,4.2992,4.2991,4.2991,0,4.1865,4.1903,4.2019,4.206,4.2111,4.2176,4.2225,4.231,4.2358,4.2459,4.2489,4.2569,4.2638,4.2754,4.2836,4.2915,4.2941,4.2938,4.2954,4.2932,4.2944,4.2941,4.2946,4.2934,4.2933,4.2932,4.2932,0,4.1842,4.188,4.1948,4.2029,4.2086,4.2154,4.2226,4.2255,4.2355,4.2405,4.2483,4.2536,4.2641,4.272,4.2809,4.2865,4.2916,4.2926,4.2933,4.2913,4.2882,4.2901,4.2921,4.2926,4.2926,4.2927,4.2927,4.2927,4.1813,4.1851,4.1939,4.2012,4.2075,4.214,4.2185,4.2253,4.232,4.2412,4.2458,4.2535,4.2621,4.2746,4.28,4.2862,4.2878,4.2888,4.2891,4.2892,4.2887,4.287,4.2878,4.2879,4.2879,4.2879,4.2879,0,4.1796,4.1856,4.1922,4.202,4.2078,4.2119,4.22,4.2245,4.2313,4.2388,4.2454,4.2544,4.2621,4.2708,4.2791,4.2824,4.2849,4.2843,4.2842,4.2855,4.2867,4.2854,4.2821,4.2821,4.2821,4.2821,4.2821,4.2821,4.1794,4.1861,4.1909,4.2008,4.2068,4.2144,4.2187,4.2248,4.2309,4.2405,4.247,4.2526,4.2607,4.2696,4.2768,4.2792,4.282,4.2807,4.2838,4.2849,4.2854,4.2858,4.2846,4.2812,4.2812,4.2821,4.2821,4.2821]}]]